sat.trackr.live / text

‹ back to catalog

STARLINK-30835

NORAD 58219 · 2023-170P

PAYLOAD ACTIVE UNKNOWN

§ Identity

Operator
Country
US
Launch date
2023-11-03
Launch site
AFETR
Launch vehicle
Mass (kg)
RCS (m²)

Purposes: comms

External: N2YO · Heavens-Above · Gunter

§ Orbital elements

Epoch: 2026-05-25T05:16:07.811040Z

Period
94.27 min
Inclination
42.9981°
Eccentricity
0.0001269
Mean motion
15.27590953 rev/d
Perigee alt
482.1 km
Apogee alt
483.9 km
Semi-major
6,861.2 km
B*
5.5104e-4
RAAN
122.0277°
Arg perigee
273.7604°
Mean anomaly
86.3102°
Rev number
14,200

§ Raw data

STARLINK-308351 58219U 23170P   26145.21953485  .00014937  00000+0  55104-3 0  99942 58219  42.9981 122.0277 0001269 273.7604  86.3102 15.27590953142001

JSON: /api/v1/satellites/58219 · /tle

For live sub-satellite position, see the globe view (requires WebGL).

§ Visibility from observer

Set your observer location to see the next 7 days of passes ≥ 10°. The values pass through the URL so the page stays shareable.

No JS? Fill the form by hand. The geolocation button needs JavaScript.